Appleton, MN

5:05 AM CDT on July 24, 2017 (GMT -0500)
Appleton Municipal

Weather History for KAQP - September, 2013

Change the Weather History Date:

Tuesday, September 10, 2013

  Actual Average Record
Temperature  
Mean Temperature 74 °F -  
Max Temperature 84 °F 74 °F 95 °F (1998)
Min Temperature 64 °F 50 °F 41 °F (2000)
Cooling Degree Days 9    
Growing Degree Days 24 (Base 50)    
Moisture  
Dew Point 60 °F    
Average Humidity 67    
Maximum Humidity 94    
Minimum Humidity 33    
Precipitation  
Precipitation 0.00 in - - ()
Sea Level Pressure  
Sea Level Pressure 29.91 in    
Wind  
Wind Speed 5 mph (West)    
Max Wind Speed 16 mph    
Max Gust Speed 20 mph    
Visibility 10 miles    
Events Rain    
Averages and records for this station are not official NWS values.
T = Trace of Precipitation, MM = Missing Value Source: NWS Daily Summary

Daily Weather History Graph

Daily Weather History Graph

Search for Another Location

Airport or City:

Trip Planner

Search our weather history database for the weather conditions in past years. The results will help you decide how hot, cold, wet, or windy it might be!

Date:

Astronomy

Sep. 10, 2013 Rise Set
Actual Time 6:56 AM CDT 7:43 PM CDT
Civil Twilight 6:27 AM CDT 8:13 PM CDT
Nautical Twilight 5:51 AM CDT 8:49 PM CDT
Astronomical Twilight 5:14 AM CDT 9:26 PM CDT
Moon 12:40 PM CDT (9/10) 10:30 PM CDT (9/10)
Length of Visible Light 13h 46m
Length of Day
12h 47m
Waxing Crescent, 28% of the Moon is Illuminated
Sep 10
Waxing Crescent
Sep 12
First Quarter
Sep 19
Full
Sep 26
Last Quarter
Oct 4
New

Hourly Weather History & Observations

Time (CDT) Temp. Heat Index Dew Point Humidity Pressure Visibility Wind Dir Wind Speed Gust Speed Precip Events Conditions
12:14 AM 69.8 °F - 64.4 °F 83% 29.80 in 10.0 mi NW 5.8 mph - N/A   Clear
12:33 AM 69.8 °F - 64.4 °F 83% 29.82 in 10.0 mi WNW 4.6 mph - N/A   Clear
12:54 AM 69.8 °F - 64.4 °F 83% 29.84 in 10.0 mi West 3.5 mph - N/A   Clear
1:13 AM 69.8 °F - 64.4 °F 83% 29.84 in 10.0 mi West 3.5 mph - N/A   Clear
1:33 AM 68.0 °F - 64.4 °F 88% 29.84 in 10.0 mi Calm Calm - N/A   Clear
1:53 AM 68.0 °F - 64.4 °F 88% 29.85 in 10.0 mi West 3.5 mph - N/A   Clear
2:13 AM 66.2 °F - 64.4 °F 94% 29.86 in 10.0 mi Calm Calm - N/A   Clear
2:33 AM 68.0 °F - 64.4 °F 88% 29.85 in 10.0 mi West 3.5 mph - N/A   Clear
2:53 AM 66.2 °F - 64.4 °F 94% 29.85 in 10.0 mi SW 3.5 mph - N/A   Clear
3:13 AM 66.2 °F - 64.4 °F 94% 29.87 in 10.0 mi West 3.5 mph - N/A   Clear
3:33 AM 66.2 °F - 64.4 °F 94% 29.86 in 10.0 mi Calm Calm - N/A   Clear
3:53 AM 68.0 °F - 64.4 °F 88% 29.85 in 10.0 mi Calm Calm - N/A Rain Light Rain
4:13 AM 68.0 °F - 64.4 °F 88% 29.85 in 10.0 mi Calm Calm - N/A   Scattered Clouds
4:33 AM 68.0 °F - 64.4 °F 88% 29.85 in 10.0 mi Calm Calm - N/A   Scattered Clouds
4:53 AM 66.2 °F - 64.4 °F 94% 29.86 in 10.0 mi Calm Calm - N/A   Overcast
5:13 AM 68.0 °F - 64.4 °F 88% 29.87 in 10.0 mi West 3.5 mph - N/A Rain Light Rain
5:34 AM 68.0 °F - 64.4 °F 88% 29.87 in 10.0 mi SSW 4.6 mph - N/A   Scattered Clouds
5:53 AM 68.0 °F - 64.4 °F 88% 29.86 in 10.0 mi South 3.5 mph - N/A Rain Light Rain
6:14 AM 68.0 °F - 64.4 °F 88% 2.98 in 10.0 mi South 4.6 mph - N/A   Clear
6:33 AM 68.0 °F - 64.4 °F 88% 29.86 in 10.0 mi South 4.6 mph - N/A   Clear
6:54 AM 68.0 °F - 64.4 °F 88% 29.86 in 10.0 mi South 5.8 mph - N/A   Clear
7:13 AM 68.0 °F - 64.4 °F 88% 29.86 in 10.0 mi South 5.8 mph - N/A   Clear
7:33 AM 68.0 °F - 64.4 °F 88% 29.87 in 10.0 mi SSW 8.1 mph - N/A Rain Light Rain
7:53 AM 69.8 °F - 64.4 °F 83% 29.87 in 10.0 mi SW 6.9 mph - N/A   Clear
8:13 AM 69.8 °F - 64.4 °F 83% 29.87 in 10.0 mi SW 6.9 mph - N/A   Clear
8:33 AM 69.8 °F - 64.4 °F 83% 29.87 in 10.0 mi WSW 5.8 mph - N/A   Clear
8:53 AM 69.8 °F - 64.4 °F 83% 29.88 in 10.0 mi WSW 8.1 mph - N/A   Clear
9:13 AM 71.6 °F - 64.4 °F 78% 29.88 in 10.0 mi WSW 9.2 mph - N/A   Clear
9:34 AM 73.4 °F - 64.4 °F 73% 29.89 in 10.0 mi West 8.1 mph - N/A   Clear
9:54 AM 75.2 °F - 62.6 °F 65% 29.90 in 10.0 mi West 10.4 mph - N/A   Clear
10:13 AM 75.2 °F - 62.6 °F 65% 29.92 in 10.0 mi West 11.5 mph - N/A   Clear
10:34 AM 77.0 °F - 60.8 °F 57% 29.92 in 10.0 mi West 16.1 mph - N/A   Clear
10:53 AM 78.8 °F - 60.8 °F 54% 29.92 in 10.0 mi WNW 12.7 mph - N/A   Clear
11:13 AM 78.8 °F - 60.8 °F 54% 29.93 in 10.0 mi WNW 12.7 mph - N/A   Clear
11:34 AM 80.6 °F 81.1 °F 59.0 °F 48% 29.93 in 10.0 mi WNW 11.5 mph - N/A   Clear
11:53 AM 80.6 °F 80.8 °F 57.2 °F 45% 29.93 in 10.0 mi West 10.4 mph 16.1 mph N/A   Clear
12:13 PM 80.6 °F 80.5 °F 55.4 °F 42% 29.94 in 10.0 mi NW 12.7 mph 16.1 mph N/A   Clear
12:33 PM 82.4 °F 81.7 °F 55.4 °F 39% 29.94 in 10.0 mi WNW 8.1 mph - N/A   Clear
12:53 PM 82.4 °F 81.7 °F 55.4 °F 39% 29.94 in 10.0 mi WNW 8.1 mph - N/A   Clear
1:13 PM 82.4 °F 81.7 °F 55.4 °F 39% 29.94 in 10.0 mi WSW 12.7 mph - N/A   Clear
1:33 PM 82.4 °F 81.7 °F 55.4 °F 39% 29.94 in 10.0 mi West 11.5 mph 17.3 mph N/A   Clear
1:53 PM 84.2 °F 82.8 °F 53.6 °F 35% 29.93 in 10.0 mi WNW 9.2 mph 17.3 mph N/A   Scattered Clouds
2:13 PM 82.4 °F 81.7 °F 55.4 °F 39% 29.93 in 10.0 mi WNW 8.1 mph 17.3 mph N/A   Scattered Clouds
2:33 PM 82.4 °F 81.4 °F 53.6 °F 37% 29.93 in 10.0 mi WNW 11.5 mph 18.4 mph N/A   Scattered Clouds
2:55 PM 82.4 °F - 51.8 °F 35% 29.93 in 10.0 mi West 15.0 mph - N/A   Clear
3:13 PM 84.2 °F - 51.8 °F 33% 29.94 in 10.0 mi WNW 11.5 mph - N/A   Clear
3:33 PM 84.2 °F - 51.8 °F 33% 29.94 in 10.0 mi West 15.0 mph 19.6 mph N/A   Clear
3:53 PM 84.2 °F 82.8 °F 53.6 °F 35% 29.93 in 10.0 mi NW 10.4 mph 19.6 mph N/A   Clear
4:13 PM 84.2 °F 82.8 °F 53.6 °F 35% 29.93 in 10.0 mi WNW 12.7 mph - N/A   Clear
4:33 PM 84.2 °F 82.8 °F 53.6 °F 35% 29.93 in 10.0 mi NW 9.2 mph - N/A   Clear
4:53 PM 82.4 °F 81.7 °F 55.4 °F 39% 29.93 in 10.0 mi NW 9.2 mph - N/A   Clear
5:13 PM 82.4 °F 81.4 °F 53.6 °F 37% 29.94 in 10.0 mi WNW 11.5 mph - N/A   Clear
5:33 PM 80.6 °F 80.3 °F 53.6 °F 39% 29.94 in 10.0 mi NW 9.2 mph - N/A   Clear
5:54 PM 80.6 °F 80.5 °F 55.4 °F 42% 29.94 in 10.0 mi NW 9.2 mph - N/A   Clear
6:13 PM 80.6 °F 80.5 °F 55.4 °F 42% 29.95 in 10.0 mi NW 8.1 mph - N/A   Clear
6:33 PM 80.6 °F 80.5 °F 55.4 °F 42% 29.95 in 10.0 mi NW 5.8 mph - N/A   Clear
6:53 PM 78.8 °F - 57.2 °F 47% 29.95 in 10.0 mi NNW 4.6 mph - N/A   Clear
7:14 PM 77.0 °F - 59.0 °F 54% 29.96 in 10.0 mi NW 4.6 mph - N/A   Clear
7:33 PM 73.4 °F - 60.8 °F 65% 29.96 in 10.0 mi WNW 3.5 mph - N/A   Clear
7:53 PM 71.6 °F - 60.8 °F 69% 29.96 in 10.0 mi NW 3.5 mph - N/A   Clear
8:13 PM 69.8 °F - 60.8 °F 73% 29.96 in 10.0 mi Calm Calm - N/A   Clear
8:33 PM 69.8 °F - 60.8 °F 73% 29.98 in 10.0 mi West 3.5 mph - N/A   Clear
8:53 PM 69.8 °F - 59.0 °F 68% 29.98 in 10.0 mi Calm Calm - N/A   Clear
9:13 PM 69.8 °F - 59.0 °F 68% 29.98 in 10.0 mi NNW 3.5 mph - N/A   Clear
9:33 PM 68.0 °F - 59.0 °F 73% 29.98 in 7.0 mi NNW 4.6 mph - N/A   Clear
9:53 PM 66.2 °F - 59.0 °F 78% 29.98 in 10.0 mi Calm Calm - N/A   Clear
10:13 PM 64.4 °F - 60.8 °F 88% 29.98 in 10.0 mi Calm Calm - N/A   Clear
10:34 PM 66.2 °F - 60.8 °F 83% 29.99 in 10.0 mi Calm Calm - N/A   Clear
10:53 PM 64.4 °F - 60.8 °F 88% 29.99 in 10.0 mi Calm Calm - N/A   Clear
11:13 PM 64.4 °F - 59.0 °F 83% 29.99 in 10.0 mi Calm Calm - N/A   Clear
11:33 PM 64.4 °F - 60.8 °F 88% 29.99 in 10.0 mi Calm Calm - N/A   Clear